Weather in Krasnaya Gorka

Russia / Smolensk Oblast     54°41′26″N   31°03′05″E
temp.,
°C
wind,
m/s
gust,
m/s
humid.,
%
clouds,
%
prec.,
mm/h
press.,
hPa
HPBL,
m
12 april, mon
mon1200:00+8sse377311 0.0 1029104
03:00+6sse36780 0.0 102993
06:00+5se35800 0.0 102969
09:00+10se48640 0.0 1028326
12:00+13se6847100 0.0 10261015
15:00+15ese6737100 0.0 10241206
18:00+10se5869100 0.0 1024513
21:00+8se3892100 1.0 1024285
13 april, tue
tue1300:00+9ese2390100 0.1 102272
03:00+8sse1194100 0.4 102211
06:00+8sse119488 0.1 102110
09:00+10se119097 0.1 102192
12:00+14ese3473100 0.0 1020713
15:00+16sse4565100 0.1 10191062
18:00+13s51080100 1.0 1018435
21:00+12sse5986100 1.3 1019453
14 april, wed
wed1400:00+11se389471 0.1 1018344
03:00+10sse4995100 0.1 1017366
06:00+9sse489693 0.1 1017338
09:00+10s4791100 0.1 1017443
12:00+14s5666100 0.4 10161045
15:00+13sse4567100 0.7 1016752
18:00+14sse236090 0.0 1015916
21:00+11e2276100 0.0 101627
15 april, thu
thu1500:00+10ne1182100 0.0 101617
03:00+9nne3595100 0.1 1016182
06:00+9nne1298100 1.0 1015106
09:00+9ese1195100 1.3 101679
12:00+11e118696 0.1 1016256
15:00+14ne226597 0.8 1015918
18:00+14ne3572100 1.2 1014550
21:00+10e3889100 3.0 1015315
16 april, fri
fri1600:00+10ene3690100 0.2 1015236
03:00+10ne61287100 0.3 1015429
06:00+8ene6139138 0.1 1015527
09:00+9ne7128999 0.1 1016688
12:00+10ene71085100 0.0 1017803
15:00+11ene81282100 0.0 10171020
18:00+10ne81585100 0.1 1017790
21:00+10ene5129298 2.1 1018439